Måndag 24 februari - FMI:s prognos

Daggp. Vind Medel Byar Luftfukt. Moln
07:00 Klart -4° -8° vindpil 4 m/s 8 m/s   1002 hPa 68 % 17 %
08:00 Klart -4° -8° vindpil 4 m/s 8 m/s   1003 hPa 65 % 1 %
09:00 Klart -3° -8° vindpil 4 m/s 9 m/s   1004 hPa 60 % 0 %
10:00 Klart -2° -8° vindpil 4 m/s 10 m/s   1004 hPa 57 % 1 %
11:00 Klart -9° vindpil 4 m/s 10 m/s   1005 hPa 52 % 19 %
12:00 Klart -9° vindpil 4 m/s 10 m/s   1005 hPa 50 % 0 %
13:00 Klart -8° vindpil 4 m/s 10 m/s   1005 hPa 50 % 0 %
14:00 Klart -8° vindpil 4 m/s 10 m/s   1005 hPa 49 % 0 %
15:00 Klart -8° vindpil 4 m/s 9 m/s   1004 hPa 51 % 0 %
16:00 Klart -7° vindpil 3 m/s 8 m/s   1004 hPa 56 % 0 %
17:00 Klart -6° vindpil 2 m/s 7 m/s   1004 hPa 62 % 0 %
18:00 Klart -1° -6° vindpil 2 m/s 4 m/s   1004 hPa 69 % 0 %
19:00 Molnigt -2° -6° vindpil 2 m/s 4 m/s   1004 hPa 71 % 72 %
20:00 Molnigt -2° -6° vindpil 2 m/s 4 m/s   1003 hPa 74 % 88 %
21:00 Klart -1° -2° -5° vindpil 2 m/s 4 m/s   1003 hPa 77 % 52 %
22:00 Klart -1° -1° -5° vindpil 1 m/s 3 m/s   1003 hPa 80 % 51 %
23:00 Molnigt -1° -1° -5° vindpil 1 m/s 2 m/s   1002 hPa 83 % 80 %

Tisdag 25 februari - FMI:s prognos

Daggp. Vind Medel Byar Luftfukt. Moln
00:00 Molnigt -2° -2° -5° vindpil 1 m/s 1 m/s   1002 hPa 84 % 95 %
01:00 Molnigt -2° -2° -5° vindpil 1 m/s 1 m/s   1001 hPa 85 % 100 %
02:00 Molnigt -1° -1° -4° vindpil 1 m/s 2 m/s   1000 hPa 86 % 100 %
03:00 Molnigt -1° -1° -4° vindpil 1 m/s 2 m/s   999 hPa 87 % 100 %
04:00 Molnigt -2° vindpil 1 m/s 2 m/s   998 hPa 90 % 100 %
05:00 Molnigt -1° -3° vindpil 2 m/s 4 m/s   998 hPa 84 % 100 %
06:00 Molnigt -1° -3° vindpil 3 m/s 7 m/s   997 hPa 77 % 100 %
07:00 Molnigt -1° -3° vindpil 3 m/s 7 m/s   996 hPa 75 % 100 %
08:00 Molnigt -1° -2° vindpil 3 m/s 7 m/s   995 hPa 80 % 100 %
09:00 Molnigt -1° -4° vindpil 5 m/s 10 m/s   995 hPa 70 % 100 %
10:00 Molnigt -1° -4° vindpil 5 m/s 11 m/s   994 hPa 69 % 100 %
11:00 Molnigt -1° -1° vindpil 6 m/s 12 m/s 0,1 mm 993 hPa 80 % 100 %
12:00 Regn -2° vindpil 5 m/s 12 m/s 0,1 mm 992 hPa 89 % 100 %
13:00 Regn -2° vindpil 5 m/s 12 m/s 0,4 mm 991 hPa 91 % 100 %
14:00 Regn -4° vindpil 7 m/s 15 m/s 0,5 mm 990 hPa 92 % 100 %
15:00 Snöblandat regn -4° vindpil 7 m/s 14 m/s 0,6 mm 988 hPa 96 % 100 %
16:00 Snöblandat regn -5° vindpil 8 m/s 16 m/s 0,7 mm 987 hPa 95 % 100 %
17:00 Snöblandat regn -5° vindpil 8 m/s 16 m/s 1,9 mm 986 hPa 97 % 100 %
18:00 Snö -5° vindpil 8 m/s 16 m/s 1,9 mm 985 hPa 99 % 100 %
19:00 Snöblandat regn -5° vindpil 8 m/s 17 m/s 1,8 mm 984 hPa 98 % 100 %
20:00 Snöblandat regn -5° vindpil 8 m/s 17 m/s 1,2 mm 983 hPa 98 % 100 %
21:00 Snö -5° vindpil 7 m/s 16 m/s 0,8 mm 982 hPa 98 % 100 %
22:00 Snö -5° vindpil 7 m/s 15 m/s 0,5 mm 981 hPa 97 % 100 %
23:00 Snöblandat regn -5° vindpil 7 m/s 16 m/s 0,4 mm 980 hPa 96 % 100 %

Onsdag 26 februari - FMI:s prognos

Daggp. Vind Medel Byar Luftfukt. Moln
00:00 Snöblandat regn -5° vindpil 7 m/s 16 m/s 0,2 mm 979 hPa 99 % 100 %
01:00 Snö -4° vindpil 6 m/s 14 m/s 0,5 mm 980 hPa 99 % 100 %
02:00 Snö -5° vindpil 6 m/s 12 m/s 1,6 mm 980 hPa 100 % 100 %
03:00 Snö -5° vindpil 6 m/s 14 m/s 1,2 mm 980 hPa 100 % 100 %
04:00 Snöblandat regn -5° vindpil 8 m/s 17 m/s 0,7 mm 980 hPa 97 % 100 %
05:00 Snö -5° vindpil 7 m/s 17 m/s 1,2 mm 980 hPa 98 % 100 %
06:00 Snö -6° -1° vindpil 9 m/s 18 m/s 0,7 mm 981 hPa 91 % 100 %
07:00 Snö -6° -2° vindpil 9 m/s 18 m/s 0,6 mm 982 hPa 88 % 100 %
08:00 Snö -6° -3° vindpil 8 m/s 18 m/s 0,6 mm 983 hPa 86 % 100 %

Vädervarningar

Vädervarningar - från SMHI

Norra Östersjön Varning klass 1 kuling (14-17 m/s) Kommentar: Omkring väst 14-17 m/s, i eftermiddag avtagande. I natt nordväst 15 m/s, måndag eftermiddag avtagande.
Norra Östersjön Varning klass 1 högt vattenstånd När: Från söndag eftermiddag. Var: Högst i norra delen. Nivå: 75-90 cm i RH 2000. Kommentar: Angiven nivå i RH 2000 motsvarar ca 65-80 cm över årets medelvattenstånd i detta område.
Se alla vädervarningar

Vägtemperaturen är just nu runt 0 grader - Kör försiktigt!

Solna -1.1° 1 km, NO 19 min sedan
Stocksund -0.5° 4 km, NO 19 min sedan
Vägväderstationer som visar en vägtemperatur nära 0 grader. Risk för tillfrysning och halt väglag.

Väderstatistik och historik för Solna

Vädret för ett år sedan

Min Max Väderstation
3,1° 8,6° Solna
2,7° 8,6° Essingeleden Karlb
2,7° 8,0° Stockholm / Bromma
2,9° 8,1° Stocksund
3,4° 6,2° Stockholm
Förra årets uppmätta temperaturer den 24 feb 2019.

Årstider

Våren ankommer normalt om
23 dagar
Vår 19 mars
Sommar 14 maj
Höst 25 september
Vinter 1 december
Årstidernas genomsnittliga ankomstdatum vid väderstationen Stockholm-Bromma (3 km bort). Källa: Bearbetning av SMHI:s normaltemperaturer.